[[{"header":{"parameterUnit":"m.s-1","parameterCategory":1,"la1":30.2991,"la2":30.254,"lo1":-89.0895,"lo2":-89.0444,"dy":0.0017,"dx":0.0017,"nx":28,"ny":28,"refTime":"2024-05-23T03:00:00:Z","depth":0,"parameterNumber":2,"parameterNumberName":"U-component_of_WINDS"},"data":[0,0,0,0,0,0,0,0,0,0,0,0,0,0,0,0,0,0,0,0,0,0,0,0,0,0,0,0,0,0,0,0,0,0,0,0,0,0,0,0,0,0,0,0,0,0,0,0,0,0,0,0,0,0,0,0,0,0,-3.0215,-3.0216,0,-3.0341,-3.0343,-3.0344,-3.0344,-3.0342,-3.0341,-3.0339,-3.0458,-3.0463,-3.0467,0,0,0,0,0,0,0,0,0,0,0,0,0,-2.9963,-2.9967,-3.0215,-3.0216,-3.0218,-3.0341,-3.0343,-3.0345,-3.0344,-3.0342,-3.034,-3.0339,-3.0457,-3.0462,-3.0468,0,0,0,0,0,0,0,0,0,0,0,0,0,-3.0079,-2.9969,-3.0215,-3.0233,-3.0236,-3.0341,-3.0343,-3.0345,-3.0345,-3.0342,-3.034,-3.0338,-3.0455,-3.0462,-3.0468,-3.056,0,0,-3.049,-3.0493,0,0,0,0,0,0,0,0,-3.0072,-3.0088,-3.0229,-3.0232,-3.0235,-3.0325,-3.0298,-3.0417,-3.0345,-3.0303,-3.0339,-3.0336,-3.0415,-3.0425,-3.0454,-3.0566,-3.0571,-3.049,-3.0495,-3.0498,-3.05,0,0,0,0,0,0,0,-3.0064,-3.0082,-3.0265,-3.0231,-3.0235,-3.0232,-3.0245,-3.032,-3.0371,-3.0307,-3.0307,-3.0322,-3.0416,-3.0447,-3.0457,-3.0572,-3.049,-3.0497,-3.0501,-3.0504,-3.0765,-3.0768,0,0,0,0,0,0,-3.0054,-3.0076,-3.0261,-3.0268,-3.0147,-3.0238,-3.0254,-3.0298,-3.037,-3.0379,-3.0324,-3.0322,-3.0436,-3.0448,-3.0461,-3.0573,-3.0498,-3.0504,-3.0508,-3.0762,-3.0766,-3.0769,0,0,0,0,0,0,-3.0048,-3.007,-3.0255,-3.0172,-3.0196,-3.0245,-3.0295,-3.0302,-3.0333,-3.0384,-3.0391,-3.0347,-3.0435,-3.0451,-3.0536,-3.0577,-3.0507,-3.0514,-3.0759,-3.0763,-3.0767,-3.0799,0,0,0,0,0,0,-3.0041,-3.0068,-3.0106,-3.0173,-3.02,-3.0332,-3.0298,-3.0306,-3.0346,-3.0344,-3.0407,-3.0415,-3.0434,-3.0526,-3.0543,-3.0586,-3.0519,-3.0756,-3.0761,-3.0766,-3.0794,-3.0803,-3.0811,0,0,0,0,0,-3.0032,-3.0108,-3.0108,-3.013,-3.0249,-3.0334,-3.0349,-3.0373,-3.035,-3.0387,-3.0419,-3.0413,-3.057,-3.0534,-3.0554,-3.0599,-3.0753,-3.076,-3.0766,-3.079,-3.0801,-3.0811,0,0,0,0,0,0,-3.004,-3.0117,-3.0118,-3.0218,-3.027,-3.0334,-3.0382,-3.0384,-3.0441,-3.0436,-3.0459,-3.0473,-3.0559,-3.0587,-3.0546,-3.0691,-3.0658,-3.0669,-3.067,-3.0681,-3.069,-3.0681,-3.0525,0,0,0,0,0,-3.0054,-3.0121,-3.0182,-3.0264,-3.0291,-3.0332,-3.037,-3.0384,-3.0437,-3.0458,-3.0496,-3.0545,-3.0606,-3.0645,-3.0703,-3.0798,-3.0811,-3.0838,-3.0847,-3.0853,-3.0862,-3.0914,-3.0927,-3.0789,-3.0789,-3.0789,0,0,-3.0082,-3.0132,-3.0172,-3.0267,-3.0309,-3.0375,-3.035,-3.042,-3.0468,-3.0467,-3.0552,-3.0581,-3.0637,-3.0728,-3.077,-3.0754,-3.0903,-3.0861,-3.0866,-3.0872,-3.0922,-3.0935,-3.0947,-3.0793,-3.0793,-3.0792,0,0,-3.0168,-3.0213,-3.0287,-3.033,-3.0396,-3.0423,-3.044,-3.0504,-3.0525,-3.0611,-3.0612,-3.0667,-3.077,-3.0811,-3.0845,-3.0946,-3.0942,-3.0963,-3.1008,-3.1058,-3.1069,-3.1079,-3.1115,-3.1128,-3.0972,-3.0972,-3.0972,0,-3.0194,-3.0296,-3.0323,-3.0395,-3.0436,-3.0442,-3.0516,-3.0555,-3.0634,-3.0661,-3.0643,-3.0774,-3.0812,-3.0912,-3.0937,-3.0964,-3.0983,-3.0957,-3.1066,-3.1076,-3.1086,-3.112,-3.1134,-3.0974,-3.0974,-3.0974,-3.0973,0,-3.0325,-3.0396,-3.0447,-3.0528,-3.0575,-3.0646,-3.0681,-3.0724,-3.0734,-3.0761,-3.0847,-3.0893,-3.0961,-3.0986,-3.0994,-3.1087,-3.1076,-3.1062,-3.1029,-3.1101,-3.1134,-3.1147,-3.0977,-3.0977,-3.0976,-3.0975,0,0,-3.0419,-3.0516,-3.0534,-3.0571,-3.0644,-3.0697,-3.0768,-3.0838,-3.0875,-3.0928,-3.0987,-3.1075,-3.1063,-3.1101,-3.1114,-3.1158,-3.1236,-3.1139,-3.114,-3.1156,-3.134,-3.1351,-3.1366,-3.1234,-3.1236,-3.1238,-3.1336,0,-3.0513,-3.0644,-3.0671,-3.0783,-3.0848,-3.0854,-3.0915,-3.0965,-3.0992,-3.1048,-3.1076,-3.1139,-3.1119,-3.1142,-3.1186,-3.1217,-3.1273,-3.121,-3.1286,-3.1289,-3.1273,-3.1384,-3.1395,-3.1485,-3.1349,-3.1351,-3.1353,0,-3.064,-3.0702,-3.0822,-3.0887,-3.0915,-3.097,-3.1037,-3.1091,-3.1146,-3.1163,-3.1207,-3.1215,-3.1285,-3.1249,-3.1346,-3.1302,-3.1334,-3.1354,-3.1358,-3.1367,-3.1326,-3.1395,-3.1514,-3.1528,-3.1373,-3.1372,-3.137,0,-3.0698,-3.081,-3.0897,-3.0928,-3.1006,-3.1044,-3.1078,-3.1131,-3.1171,-3.1228,-3.1254,-3.1316,-3.1351,-3.1397,-3.1421,-3.1392,-3.1516,-3.1481,-3.153,-3.1529,-3.1556,-3.1554,-3.1683,-3.1576,-3.1575,-3.1575,-3.1575,0,-3.08,-3.0873,-3.0924,-3.0977,-3.1059,-3.1087,-3.1165,-3.1197,-3.1244,-3.1301,-3.1308,-3.1361,-3.1389,-3.1445,-3.1463,-3.154,-3.1555,-3.1568,-3.1572,-3.1569,-3.1567,-3.159,-3.1585,-3.1579,-3.1578,-3.1577,-3.1577,0,-3.0878,-3.0916,-3.1011,-3.1078,-3.1096,-3.1153,-3.1208,-3.1258,-3.1286,-3.1358,-3.1376,-3.1418,-3.1484,-3.1513,-3.1592,-3.1604,-3.1693,-3.1692,-3.1676,-3.1678,-3.1725,-3.172,-3.1873,-3.1895,-3.1773,-3.1774,-3.1775,0,-3.0942,-3.0999,-3.1073,-3.1114,-3.115,-3.1215,-3.1258,-3.1286,-3.1329,-3.1397,-3.1438,-3.1506,-3.1561,-3.1666,-3.1701,-3.1762,-3.1763,-3.1812,-3.1772,-3.1766,-3.1764,-3.1761,-3.1766,-3.182,-3.1821,-3.1822,-3.1823,0,-3.105,-3.1066,-3.113,-3.12,-3.1252,-3.1307,-3.1361,-3.1393,-3.1429,-3.1477,-3.1547,-3.159,-3.1674,-3.174,-3.1803,-3.1833,-3.1834,-3.1835,-3.185,-3.1847,-3.1836,-3.1843,-3.1697,-3.1832,-3.1831,-3.183,-3.183,-3.1829,-3.1123,-3.1175,-3.1236,-3.1306,-3.1351,-3.1401,-3.1452,-3.1488,-3.1548,-3.1621,-3.1633,-3.1707,-3.1759,-3.1845,-3.1878,-3.1934,-3.1922,-3.1942,-3.1948,-3.1953,-3.1956,-3.1826,-3.1946,-3.1945,-3.1945,-3.1945,-3.1945,0,-3.1233,-3.1273,-3.1338,-3.1415,-3.147,-3.1469,-3.1529,-3.1573,-3.164,-3.1691,-3.1747,-3.1826,-3.189,-3.1931,-3.1995,-3.2032,-3.2034,-3.2048,-3.2046,-3.2053,-3.1964,-3.1945,-3.2046,-3.2046,-3.2046,-3.2046,-3.2046,-3.2046,-3.1297,-3.1384,-3.1407,-3.1516,-3.1554,-3.1631,-3.1665,-3.171,-3.1751,-3.1842,-3.1897,-3.1925,-3.197,-3.2038,-3.2096,-3.2106,-3.2129,-3.2144,-3.2153,-3.2069,-3.2059,-3.2049,-3.2032,-3.2149,-3.2149,-3.2238,-3.2239,-3.2239]},{"header":{"parameterUnit":"m.s-1","parameterCategory":1,"la1":30.2991,"la2":30.254,"lo1":-89.0895,"lo2":-89.0444,"dy":0.0017,"dx":0.0017,"nx":28,"ny":28,"refTime":"2024-05-23T03:00:00:Z","depth":0,"parameterNumber":3,"parameterNumberName":"V-component_of_WINDS"},"data":[0,0,0,0,0,0,0,0,0,0,0,0,0,0,0,0,0,0,0,0,0,0,0,0,0,0,0,0,0,0,0,0,0,0,0,0,0,0,0,0,0,0,0,0,0,0,0,0,0,0,0,0,0,0,0,0,0,0,3.0329,3.033,0,3.0398,3.0399,3.0399,3.0308,3.0304,3.0301,3.0298,3.037,3.0375,3.038,0,0,0,0,0,0,0,0,0,0,0,0,0,3.012,3.0124,3.0329,3.033,3.0331,3.0398,3.0399,3.04,3.0308,3.0304,3.03,3.0297,3.0369,3.0374,3.038,0,0,0,0,0,0,0,0,0,0,0,0,0,3.0202,3.0126,3.0329,3.0293,3.0291,3.0397,3.0399,3.04,3.0309,3.0304,3.0299,3.0295,3.0367,3.0374,3.0381,3.0527,0,0,3.0404,3.0407,0,0,0,0,0,0,0,0,3.0198,3.021,3.0298,3.0296,3.0293,3.0339,3.0351,3.0442,3.031,3.0302,3.0298,3.0292,3.0364,3.0371,3.0395,3.053,3.0533,3.0405,3.0409,3.0413,3.0415,0,0,0,0,0,0,0,3.0192,3.0207,3.0356,3.0299,3.0296,3.0274,3.028,3.0368,3.036,3.0303,3.0296,3.0305,3.0362,3.0388,3.0396,3.0534,3.0405,3.0411,3.0416,3.0419,3.0792,3.0797,0,0,0,0,0,0,3.019,3.0202,3.0354,3.0358,3.0232,3.0282,3.0289,3.0329,3.0359,3.0359,3.031,3.0301,3.0378,3.0388,3.0398,3.0571,3.0413,3.042,3.0424,3.0786,3.0793,3.0799,0,0,0,0,0,0,3.0186,3.0205,3.0351,3.0279,3.0296,3.0291,3.0337,3.0333,3.036,3.0364,3.0362,3.0338,3.0374,3.0388,3.0495,3.0572,3.0423,3.043,3.078,3.0788,3.0796,3.0917,0,0,0,0,0,0,3.0181,3.0204,3.0259,3.0281,3.03,3.0447,3.0342,3.0338,3.0373,3.0362,3.039,3.039,3.0371,3.0485,3.0503,3.058,3.0436,3.0773,3.0784,3.0793,3.0906,3.0928,3.0947,0,0,0,0,0,3.0174,3.0291,3.0262,3.0281,3.0368,3.0452,3.0463,3.0438,3.0379,3.0435,3.0437,3.0389,3.056,3.0496,3.0516,3.0596,3.0768,3.0781,3.0792,3.0897,3.0924,3.0946,0,0,0,0,0,0,3.0279,3.0293,3.0262,3.0389,3.042,3.0436,3.0505,3.0468,3.0516,3.0505,3.0472,3.048,3.0594,3.0606,3.0534,3.0738,3.0654,3.0671,3.0727,3.0753,3.0773,3.0768,3.0442,0,0,0,0,0,3.0317,3.0383,3.0392,3.0504,3.0521,3.0511,3.0546,3.0524,3.0555,3.0568,3.0578,3.0611,3.0672,3.0713,3.0769,3.0907,3.0912,3.0971,3.0992,3.1009,3.1024,3.1098,3.1125,3.0839,3.0839,3.0838,0,0,3.0397,3.0412,3.0456,3.0525,3.0546,3.0616,3.0522,3.06,3.0651,3.058,3.0682,3.0691,3.0725,3.0848,3.0903,3.0861,3.1104,3.1024,3.1038,3.1044,3.1113,3.114,3.1165,3.0847,3.0845,3.0844,0,0,3.0578,3.0596,3.0691,3.0714,3.0747,3.0739,3.0762,3.0784,3.0787,3.0889,3.0837,3.0897,3.1003,3.1029,3.1056,3.1246,3.1204,3.1265,3.1373,3.1446,3.1468,3.1488,3.1556,3.1581,3.128,3.1281,3.1281,0,3.0673,3.0775,3.0745,3.0826,3.0858,3.0795,3.0892,3.0915,3.0966,3.099,3.0942,3.1073,3.1091,3.122,3.1266,3.129,3.1315,3.1263,3.1467,3.1487,3.1505,3.157,3.1596,3.1288,3.1287,3.1286,3.1286,0,3.089,3.0962,3.1035,3.1084,3.1124,3.1213,3.1196,3.124,3.1215,3.1213,3.1317,3.1337,3.1396,3.1424,3.1401,3.155,3.1523,3.1472,3.1387,3.154,3.16,3.1625,3.1298,3.1296,3.1293,3.1292,0,0,3.1141,3.1171,3.1199,3.122,3.1252,3.1307,3.1392,3.1449,3.1488,3.1525,3.1596,3.1686,3.1639,3.167,3.1648,3.1712,3.1862,3.1652,3.1653,3.1692,3.2028,3.2068,3.2097,3.1833,3.1838,3.1841,3.2026,0,3.1322,3.1469,3.1444,3.1588,3.1654,3.1594,3.1669,3.1697,3.1697,3.1753,3.1752,3.1817,3.1749,3.1768,3.1828,3.1831,3.1929,3.1817,3.19,3.1904,3.1895,3.2128,3.2171,3.2344,3.2049,3.2053,3.2056,0,3.1553,3.1598,3.1747,3.1768,3.1794,3.1862,3.1912,3.1966,3.1996,3.1992,3.2026,3.1993,3.2078,3.1991,3.211,3.2034,3.2066,3.2073,3.2079,3.2087,3.199,3.2144,3.2398,3.2425,3.2093,3.209,3.2087,0,3.1722,3.1819,3.1921,3.1941,3.1967,3.2016,3.203,3.2055,3.209,3.2134,3.2157,3.2211,3.2241,3.2283,3.2266,3.2204,3.2388,3.2299,3.2387,3.2388,3.243,3.2428,3.2694,3.2449,3.2449,3.2448,3.2448,0,3.1928,3.2022,3.1997,3.206,3.2164,3.2134,3.2238,3.2244,3.2267,3.233,3.2282,3.2343,3.2315,3.2374,3.236,3.2461,3.2474,3.2474,3.2469,3.2479,3.2479,3.2501,3.2489,3.2455,3.2453,3.2452,3.2451,0,3.2135,3.2122,3.2229,3.2245,3.2251,3.2327,3.234,3.24,3.2395,3.2476,3.2493,3.2487,3.2554,3.254,3.2614,3.2604,3.2731,3.2711,3.2721,3.2717,3.2806,3.2798,3.3097,3.3135,3.2864,3.2867,3.2869,0,3.2268,3.2339,3.2361,3.24,3.2417,3.248,3.2516,3.2489,3.2528,3.2568,3.2622,3.2685,3.2733,3.2843,3.2846,3.2902,3.2884,3.2984,3.2892,3.29,3.2887,3.2883,3.2891,3.3003,3.3006,3.3009,3.3011,0,3.2505,3.2495,3.2548,3.26,3.2644,3.2683,3.2718,3.2752,3.2728,3.2775,3.2842,3.288,3.2955,3.3018,3.307,3.3084,3.3045,3.304,3.3063,3.3075,3.3078,3.3079,3.2772,3.3033,3.3031,3.3029,3.3028,3.3027,3.268,3.274,3.2765,3.2826,3.2849,3.2883,3.2939,3.2941,3.2997,3.3055,3.3035,3.3113,3.3141,3.3206,3.3226,3.3287,3.3249,3.3283,3.3292,3.3301,3.3313,3.3067,3.3296,3.3295,3.3295,3.3294,3.3294,0,3.2916,3.2928,3.2985,3.3034,3.3083,3.3039,3.3075,3.3119,3.3187,3.3216,3.3264,3.3342,3.3403,3.3409,3.3467,3.3514,3.3497,3.353,3.3527,3.3531,3.3343,3.3317,3.3543,3.3543,3.3543,3.3543,3.3543,3.3542,3.3044,3.3144,3.3136,3.3247,3.3259,3.3334,3.3358,3.3389,3.3412,3.3501,3.3551,3.3554,3.3574,3.3633,3.3687,3.3687,3.3711,3.3751,3.3745,3.3569,3.3545,3.3521,3.3497,3.3757,3.3757,3.3929,3.3931,3.3932]}]]